Time,TemperatureF,DewpointF,PressureIn,WindDirection,WindDirectionDegrees,WindSpeedMPH,WindSpeedGustMPH,Humidity,HourlyPrecipIn,Conditions,Clouds,dailyrainin,SoftwareType,DateUTC
2013-11-06 00:04:00,38.1,32.8,28.53,NW,304,3.6,5.4,81,0.00,,---,0.00,VWS V14.01,2013-11-06 06:04:00,
2013-11-06 00:09:00,38.1,32.8,28.53,WNW,302,5.4,5.4,81,0.00,,---,0.00,VWS V14.01,2013-11-06 06:09:00,
2013-11-06 00:14:00,38.1,32.8,28.53,West,262,3.6,5.8,81,0.00,,---,0.00,VWS V14.01,2013-11-06 06:14:00,
2013-11-06 00:19:00,38.1,32.5,28.53,West,264,0.0,5.8,80,0.00,,---,0.00,VWS V14.01,2013-11-06 06:19:00,
2013-11-06 00:24:00,38.1,32.5,28.56,NW,325,4.0,5.8,80,0.00,,---,0.00,VWS V14.01,2013-11-06 06:24:00,
2013-11-06 00:29:00,37.9,32.3,28.56,NW,318,0.0,5.8,80,0.00,,---,0.00,VWS V14.01,2013-11-06 06:29:00,
2013-11-06 00:34:00,37.9,32.3,28.56,NW,326,0.0,5.8,80,0.00,,---,0.00,VWS V14.01,2013-11-06 06:34:00,
2013-11-06 00:39:00,38.1,32.5,28.56,NW,320,2.7,5.8,80,0.00,,---,0.00,VWS V14.01,2013-11-06 06:39:00,
2013-11-06 00:45:00,38.1,32.5,28.56,WSW,251,4.0,5.8,80,0.00,,---,0.00,VWS V14.01,2013-11-06 06:45:00,
2013-11-06 00:50:00,38.1,32.8,28.56,NW,324,3.6,5.8,81,0.00,,---,0.00,VWS V14.01,2013-11-06 06:50:00,
2013-11-06 00:55:00,38.1,32.8,28.56,NW,306,2.7,5.8,81,0.00,,---,0.00,VWS V14.01,2013-11-06 06:55:00,
2013-11-06 01:00:00,37.9,32.6,28.56,NNW,330,4.0,4.0,81,0.00,,---,0.00,VWS V14.01,2013-11-06 07:00:00,
2013-11-06 01:05:00,38.1,32.8,28.56,WNW,294,2.7,6.3,81,0.00,,---,0.00,VWS V14.01,2013-11-06 07:05:00,
2013-11-06 01:10:00,38.1,32.8,28.56,NW,305,2.7,6.3,81,0.00,,---,0.00,VWS V14.01,2013-11-06 07:10:00,
2013-11-06 01:15:00,37.9,32.6,28.56,NW,305,0.0,6.3,81,0.00,,---,0.00,VWS V14.01,2013-11-06 07:15:00,
2013-11-06 01:20:00,37.9,32.0,28.56,SW,233,2.7,6.3,79,0.00,,---,0.00,VWS V14.01,2013-11-06 07:20:00,
2013-11-06 01:25:00,37.9,31.7,28.59,WNW,299,0.0,6.3,78,0.00,,---,0.00,VWS V14.01,2013-11-06 07:25:00,
2013-11-06 01:30:00,37.9,31.7,28.59,NW,308,3.1,6.3,78,0.00,,---,0.00,VWS V14.01,2013-11-06 07:30:00,
2013-11-06 01:36:00,37.8,31.5,28.59,NW,317,4.9,6.3,78,0.00,,---,0.00,VWS V14.01,2013-11-06 07:36:00,
2013-11-06 01:41:00,37.8,31.5,28.59,West,267,2.2,6.3,78,0.00,,---,0.00,VWS V14.01,2013-11-06 07:41:00,
2013-11-06 01:46:00,37.6,31.4,28.59,NW,305,4.5,6.3,78,0.00,,---,0.00,VWS V14.01,2013-11-06 07:46:00,
2013-11-06 01:51:00,37.6,31.0,28.59,North,353,3.6,6.3,77,0.00,,---,0.00,VWS V14.01,2013-11-06 07:51:00,
2013-11-06 01:56:00,37.4,30.5,28.56,NW,311,4.0,6.3,76,0.00,,---,0.00,VWS V14.01,2013-11-06 07:56:00,
2013-11-06 02:01:00,37.4,30.2,28.56,WNW,287,0.0,3.1,75,0.00,,---,0.00,VWS V14.01,2013-11-06 08:01:00,
2013-11-06 02:06:00,37.4,30.2,28.56,NW,304,3.6,4.9,75,0.00,,---,0.00,VWS V14.01,2013-11-06 08:06:00,
2013-11-06 02:11:00,37.4,30.5,28.59,NW,312,3.6,4.9,76,0.00,,---,0.00,VWS V14.01,2013-11-06 08:11:00,
2013-11-06 02:16:00,37.4,30.9,28.59,WNW,298,3.1,4.9,77,0.00,,---,0.00,VWS V14.01,2013-11-06 08:16:00,
2013-11-06 02:21:00,37.4,30.9,28.59,NW,304,2.7,5.4,77,0.00,,---,0.00,VWS V14.01,2013-11-06 08:21:00,
2013-11-06 02:27:00,37.2,30.7,28.59,West,270,4.0,7.6,77,0.00,,---,0.00,VWS V14.01,2013-11-06 08:27:00,
2013-11-06 02:32:00,37.2,30.4,28.59,WNW,294,3.6,7.6,76,0.00,,---,0.00,VWS V14.01,2013-11-06 08:32:00,
2013-11-06 02:37:00,37.2,30.0,28.59,WNW,302,2.7,7.6,75,0.00,,---,0.00,VWS V14.01,2013-11-06 08:37:00,
2013-11-06 02:42:00,37.2,30.4,28.59,WNW,302,0.0,7.6,76,0.00,,---,0.00,VWS V14.01,2013-11-06 08:42:00,
2013-11-06 02:47:00,37.4,30.5,28.59,NW,311,0.0,7.6,76,0.00,,---,0.00,VWS V14.01,2013-11-06 08:47:00,
2013-11-06 02:52:00,37.4,30.5,28.59,WNW,297,2.7,7.6,76,0.00,,---,0.00,VWS V14.01,2013-11-06 08:52:00,
2013-11-06 02:57:00,37.2,30.4,28.59,SSW,206,3.6,7.6,76,0.00,,---,0.00,VWS V14.01,2013-11-06 08:57:00,
2013-11-06 03:02:00,37.2,30.4,28.59,SSW,198,3.6,4.0,76,0.00,,---,0.00,VWS V14.01,2013-11-06 09:02:00,
2013-11-06 03:07:00,37.2,30.4,28.59,NW,308,3.1,6.3,76,0.00,,---,0.00,VWS V14.01,2013-11-06 09:07:00,
2013-11-06 03:12:00,37.2,30.4,28.59,NNW,335,4.0,6.3,76,0.00,,---,0.00,VWS V14.01,2013-11-06 09:12:00,
2013-11-06 03:18:00,37.2,30.0,28.59,NW,322,2.7,6.3,75,0.00,,---,0.00,VWS V14.01,2013-11-06 09:18:00,
2013-11-06 03:23:00,37.0,29.5,28.59,NNW,332,0.0,6.3,74,0.00,,---,0.00,VWS V14.01,2013-11-06 09:23:00,
2013-11-06 03:28:00,37.0,29.5,28.59,NE,38,0.0,6.3,74,0.00,,---,0.00,VWS V14.01,2013-11-06 09:28:00,
2013-11-06 03:33:00,37.0,29.5,28.59,West,278,2.2,6.3,74,0.00,,---,0.00,VWS V14.01,2013-11-06 09:33:00,
2013-11-06 03:38:00,37.0,29.5,28.59,NW,308,3.6,6.3,74,0.00,,---,0.00,VWS V14.01,2013-11-06 09:38:00,
2013-11-06 03:43:00,37.0,29.9,28.59,NW,307,0.0,6.3,75,0.00,,---,0.00,VWS V14.01,2013-11-06 09:43:00,
2013-11-06 03:48:00,37.2,30.0,28.59,NW,310,0.0,6.3,75,0.00,,---,0.00,VWS V14.01,2013-11-06 09:48:00,
2013-11-06 03:53:00,37.2,30.4,28.59,West,262,3.1,6.3,76,0.00,,---,0.00,VWS V14.01,2013-11-06 09:53:00,
2013-11-06 03:58:00,37.2,30.4,28.61,SW,232,0.0,6.7,76,0.00,,---,0.00,VWS V14.01,2013-11-06 09:58:00,
2013-11-06 04:03:00,37.2,30.4,28.61,WSW,245,3.6,5.8,76,0.00,,---,0.00,VWS V14.01,2013-11-06 10:03:00,
2013-11-06 04:09:00,37.0,30.2,28.61,WNW,302,0.0,5.8,76,0.00,,---,0.00,VWS V14.01,2013-11-06 10:09:00,
2013-11-06 04:14:00,36.9,29.7,28.61,WNW,301,4.0,5.8,75,0.00,,---,0.00,VWS V14.01,2013-11-06 10:14:00,
2013-11-06 04:19:00,36.7,29.5,28.61,NW,308,0.0,5.8,75,0.00,,---,0.00,VWS V14.01,2013-11-06 10:19:00,
2013-11-06 04:24:00,36.5,29.7,28.61,NW,307,0.0,5.8,76,0.00,,---,0.00,VWS V14.01,2013-11-06 10:24:00,
2013-11-06 04:29:00,36.3,29.5,28.61,WNW,287,0.0,5.8,76,0.00,,---,0.00,VWS V14.01,2013-11-06 10:29:00,
2013-11-06 04:34:00,36.1,29.6,28.61,WNW,288,3.6,5.8,77,0.00,,---,0.00,VWS V14.01,2013-11-06 10:34:00,
2013-11-06 04:39:00,35.8,29.3,28.61,WNW,285,2.7,5.8,77,0.00,,---,0.00,VWS V14.01,2013-11-06 10:39:00,
2013-11-06 04:44:00,35.6,29.4,28.61,WNW,302,0.0,5.8,78,0.00,,---,0.00,VWS V14.01,2013-11-06 10:44:00,
2013-11-06 04:49:00,35.4,29.6,28.61,WNW,292,0.0,5.8,79,0.00,,---,0.00,VWS V14.01,2013-11-06 10:49:00,
2013-11-06 04:54:00,35.2,29.4,28.61,WNW,294,0.0,5.8,79,0.00,,---,0.00,VWS V14.01,2013-11-06 10:54:00,
2013-11-06 04:59:00,35.1,29.2,28.61,WNW,294,0.0,5.8,79,0.00,,---,0.00,VWS V14.01,2013-11-06 10:59:00,
2013-11-06 05:05:00,34.9,29.4,28.61,WNW,294,0.0,0.0,80,0.00,,---,0.00,VWS V14.01,2013-11-06 11:05:00,
2013-11-06 05:10:00,34.7,29.2,28.64,WNW,290,0.0,0.0,80,0.00,,---,0.00,VWS V14.01,2013-11-06 11:10:00,
2013-11-06 05:15:00,34.5,29.0,28.64,WSW,247,0.0,6.7,80,0.00,,---,0.00,VWS V14.01,2013-11-06 11:15:00,
2013-11-06 05:20:00,34.3,28.8,28.64,WSW,246,2.2,6.7,80,0.00,,---,0.00,VWS V14.01,2013-11-06 11:20:00,
2013-11-06 05:25:00,34.0,28.8,28.64,WSW,247,0.0,6.7,81,0.00,,---,0.00,VWS V14.01,2013-11-06 11:25:00,
2013-11-06 05:30:00,33.8,28.6,28.64,West,260,0.0,6.7,81,0.00,,---,0.00,VWS V14.01,2013-11-06 11:30:00,
2013-11-06 05:35:00,33.8,28.9,28.64,West,259,0.0,6.7,82,0.00,,---,0.00,VWS V14.01,2013-11-06 11:35:00,
2013-11-06 05:40:00,33.6,29.0,28.64,West,261,0.0,6.7,83,0.00,,---,0.00,VWS V14.01,2013-11-06 11:40:00,
2013-11-06 05:45:00,33.6,29.3,28.64,WSW,253,0.0,6.7,84,0.00,,---,0.00,VWS V14.01,2013-11-06 11:45:00,
2013-11-06 05:50:00,33.6,29.6,28.64,West,275,0.0,6.7,85,0.00,,---,0.00,VWS V14.01,2013-11-06 11:50:00,
2013-11-06 05:56:00,33.4,29.7,28.64,West,275,0.0,6.7,86,0.00,,---,0.00,VWS V14.01,2013-11-06 11:56:00,
2013-11-06 06:01:00,33.4,29.7,28.64,WSW,257,0.0,2.2,86,0.00,,---,0.00,VWS V14.01,2013-11-06 12:01:00,
2013-11-06 06:06:00,33.3,29.5,28.64,West,281,0.0,2.2,86,0.00,,---,0.00,VWS V14.01,2013-11-06 12:06:00,
2013-11-06 06:11:00,33.3,29.5,28.64,WSW,253,2.2,4.5,86,0.00,,---,0.00,VWS V14.01,2013-11-06 12:11:00,
2013-11-06 06:16:00,33.3,29.8,28.64,WSW,249,0.0,6.3,87,0.00,,---,0.00,VWS V14.01,2013-11-06 12:16:00,
2013-11-06 06:21:00,33.3,29.8,28.64,WSW,249,0.0,6.3,87,0.00,,---,0.00,VWS V14.01,2013-11-06 12:21:00,
2013-11-06 06:26:00,33.1,29.6,28.64,WSW,248,0.0,6.3,87,0.00,,---,0.00,VWS V14.01,2013-11-06 12:26:00,
2013-11-06 06:31:00,33.1,29.6,28.64,WSW,251,3.6,6.3,87,0.00,,---,0.00,VWS V14.01,2013-11-06 12:31:00,
2013-11-06 06:36:00,32.9,29.5,28.64,WSW,257,4.9,8.7,87,0.00,,---,0.00,VWS V14.01,2013-11-06 12:36:00,
2013-11-06 06:41:00,32.7,29.3,28.67,WSW,257,4.9,8.7,87,0.00,,---,0.00,VWS V14.01,2013-11-06 12:41:00,
2013-11-06 06:46:00,32.7,29.3,28.67,West,273,0.0,8.7,87,0.00,,---,0.00,VWS V14.01,2013-11-06 12:46:00,
2013-11-06 06:52:00,32.5,29.1,28.67,West,274,3.6,8.7,87,0.00,,---,0.00,VWS V14.01,2013-11-06 12:52:00,
2013-11-06 06:57:00,32.5,29.4,28.67,West,261,5.4,8.7,88,0.00,,---,0.00,VWS V14.01,2013-11-06 12:57:00,
2013-11-06 07:02:00,32.5,29.4,28.67,West,261,2.7,4.0,88,0.00,,---,0.00,VWS V14.01,2013-11-06 13:02:00,
2013-11-06 07:07:00,32.7,29.8,28.67,West,259,5.4,6.3,89,0.00,,---,0.00,VWS V14.01,2013-11-06 13:07:00,
2013-11-06 07:12:00,32.7,29.8,28.67,West,263,0.0,6.3,89,0.00,,---,0.00,VWS V14.01,2013-11-06 13:12:00,
2013-11-06 07:17:00,32.9,30.0,28.67,WSW,252,3.6,6.3,89,0.00,,---,0.00,VWS V14.01,2013-11-06 13:17:00,
2013-11-06 07:22:00,32.9,30.0,28.67,WSW,252,0.0,6.3,89,0.00,,---,0.00,VWS V14.01,2013-11-06 13:22:00,
2013-11-06 07:27:00,33.1,30.5,28.67,WSW,253,0.0,6.3,90,0.00,,---,0.00,VWS V14.01,2013-11-06 13:27:00,
2013-11-06 07:32:00,33.1,30.5,28.67,NW,304,0.0,6.3,90,0.00,,---,0.00,VWS V14.01,2013-11-06 13:32:00,
2013-11-06 07:37:00,33.3,30.6,28.67,WNW,287,3.1,6.3,90,0.00,,---,0.00,VWS V14.01,2013-11-06 13:37:00,
2013-11-06 07:43:00,33.3,30.6,28.70,WSW,258,0.0,6.3,90,0.00,,---,0.00,VWS V14.01,2013-11-06 13:43:00,
2013-11-06 07:48:00,33.6,31.0,28.70,WSW,255,3.1,6.3,90,0.00,,---,0.00,VWS V14.01,2013-11-06 13:48:00,
2013-11-06 07:53:00,33.6,30.7,28.70,West,281,0.0,6.3,89,0.00,,---,0.00,VWS V14.01,2013-11-06 13:53:00,
2013-11-06 07:58:00,33.8,30.9,28.70,WNW,297,0.0,6.3,89,0.00,,---,0.00,VWS V14.01,2013-11-06 13:58:00,
2013-11-06 08:03:00,33.8,30.6,28.70,WNW,298,2.2,3.6,88,0.00,,---,0.00,VWS V14.01,2013-11-06 14:03:00,
2013-11-06 08:08:00,34.0,30.5,28.70,NW,314,3.1,3.6,87,0.00,,---,0.00,VWS V14.01,2013-11-06 14:08:00,
2013-11-06 08:13:00,34.0,30.5,28.70,North,357,3.1,5.8,87,0.00,,---,0.00,VWS V14.01,2013-11-06 14:13:00,
2013-11-06 08:18:00,34.2,30.4,28.70,North,353,0.0,5.8,86,0.00,,---,0.00,VWS V14.01,2013-11-06 14:18:00,
2013-11-06 08:23:00,34.3,30.6,28.70,NW,307,0.0,5.8,86,0.00,,---,0.00,VWS V14.01,2013-11-06 14:23:00,
2013-11-06 08:28:00,34.3,30.3,28.70,WNW,295,2.7,5.8,85,0.00,,---,0.00,VWS V14.01,2013-11-06 14:28:00,
2013-11-06 08:34:00,34.3,30.3,28.70,West,277,0.0,5.8,85,0.00,,---,0.00,VWS V14.01,2013-11-06 14:34:00,
2013-11-06 08:39:00,34.5,30.5,28.70,SSW,208,0.0,5.8,85,0.00,,---,0.00,VWS V14.01,2013-11-06 14:39:00,
2013-11-06 08:44:00,34.9,30.8,28.73,West,271,2.2,5.8,85,0.00,,---,0.00,VWS V14.01,2013-11-06 14:44:00,
2013-11-06 08:49:00,34.9,30.5,28.73,NW,308,0.0,5.8,84,0.00,,---,0.00,VWS V14.01,2013-11-06 14:49:00,
2013-11-06 08:54:00,34.9,30.2,28.73,WNW,294,2.2,5.8,83,0.00,,---,0.00,VWS V14.01,2013-11-06 14:54:00,
2013-11-06 08:59:00,34.9,30.2,28.73,North,353,0.0,5.8,83,0.00,,---,0.00,VWS V14.01,2013-11-06 14:59:00,
2013-11-06 09:04:00,35.1,30.4,28.73,NW,316,0.0,3.1,83,0.00,,---,0.00,VWS V14.01,2013-11-06 15:04:00,
2013-11-06 09:09:00,35.1,30.1,28.73,NW,317,0.0,3.1,82,0.00,,---,0.00,VWS V14.01,2013-11-06 15:09:00,
2013-11-06 09:14:00,35.1,30.1,28.73,NW,317,0.0,3.1,82,0.00,,---,0.00,VWS V14.01,2013-11-06 15:14:00,
2013-11-06 09:20:00,35.4,30.8,28.73,NW,325,0.0,3.1,83,0.00,,---,0.00,VWS V14.01,2013-11-06 15:20:00,
2013-11-06 09:25:00,35.6,31.0,28.73,WNW,300,0.0,4.0,83,0.00,,---,0.00,VWS V14.01,2013-11-06 15:25:00,
2013-11-06 09:30:00,35.4,30.5,28.73,West,271,4.9,5.4,82,0.00,,---,0.00,VWS V14.01,2013-11-06 15:30:00,
2013-11-06 09:35:00,35.6,30.4,28.73,West,259,3.6,5.4,81,0.00,,---,0.00,VWS V14.01,2013-11-06 15:35:00,
2013-11-06 09:40:00,35.6,30.4,28.73,NNW,333,0.0,5.4,81,0.00,,---,0.00,VWS V14.01,2013-11-06 15:40:00,
2013-11-06 09:45:00,35.8,30.5,28.73,NW,319,0.0,5.4,81,0.00,,---,0.00,VWS V14.01,2013-11-06 15:45:00,
2013-11-06 09:50:00,35.8,30.5,28.73,West,278,0.0,6.3,81,0.00,,---,0.00,VWS V14.01,2013-11-06 15:50:00,
2013-11-06 09:55:00,36.0,30.4,28.73,WNW,284,0.0,6.3,80,0.00,,---,0.00,VWS V14.01,2013-11-06 15:55:00,
2013-11-06 10:00:00,36.1,30.3,28.73,West,270,0.0,2.7,79,0.00,,---,0.00,VWS V14.01,2013-11-06 16:00:00,
2013-11-06 10:05:00,36.1,30.3,28.73,NW,304,2.2,4.0,79,0.00,,---,0.00,VWS V14.01,2013-11-06 16:05:00,
2013-11-06 10:11:00,36.1,30.0,28.73,West,273,0.0,4.0,78,0.00,,---,0.00,VWS V14.01,2013-11-06 16:11:00,
2013-11-06 10:16:00,36.3,30.1,28.73,West,264,3.1,8.7,78,0.00,,---,0.00,VWS V14.01,2013-11-06 16:16:00,
2013-11-06 10:21:00,36.5,30.3,28.73,West,264,2.7,8.7,78,0.00,,---,0.00,VWS V14.01,2013-11-06 16:21:00,
2013-11-06 10:26:00,36.7,30.2,28.73,WNW,292,4.0,8.7,77,0.00,,---,0.00,VWS V14.01,2013-11-06 16:26:00,
2013-11-06 10:31:00,36.7,30.2,28.73,West,259,4.9,8.7,77,0.00,,---,0.00,VWS V14.01,2013-11-06 16:31:00,
2013-11-06 10:36:00,36.9,30.3,28.73,West,275,2.2,8.7,77,0.00,,---,0.00,VWS V14.01,2013-11-06 16:36:00,
2013-11-06 10:41:00,36.9,30.0,28.76,SW,229,6.3,8.7,76,0.00,,---,0.00,VWS V14.01,2013-11-06 16:41:00,
2013-11-06 10:46:00,37.0,29.9,28.76,West,266,4.9,8.7,75,0.00,,---,0.00,VWS V14.01,2013-11-06 16:46:00,
2013-11-06 10:51:00,37.4,30.2,28.76,WSW,252,2.7,8.7,75,0.00,,---,0.00,VWS V14.01,2013-11-06 16:51:00,
2013-11-06 10:56:00,37.6,30.4,28.73,WSW,251,3.1,8.7,75,0.00,,---,0.00,VWS V14.01,2013-11-06 16:56:00,
2013-11-06 11:02:00,37.8,30.2,28.73,West,265,0.0,3.6,74,0.00,,---,0.00,VWS V14.01,2013-11-06 17:02:00,
2013-11-06 11:07:00,37.8,29.9,28.73,West,281,2.2,7.6,73,0.00,,---,0.00,VWS V14.01,2013-11-06 17:07:00,
2013-11-06 11:12:00,37.9,30.1,28.73,WNW,294,3.1,7.6,73,0.00,,---,0.00,VWS V14.01,2013-11-06 17:12:00,
2013-11-06 11:17:00,38.1,30.2,28.73,WSW,248,2.7,7.6,73,0.00,,---,0.00,VWS V14.01,2013-11-06 17:17:00,
2013-11-06 11:22:00,38.1,29.9,28.73,West,261,0.0,7.6,72,0.00,,---,0.00,VWS V14.01,2013-11-06 17:22:00,
2013-11-06 11:27:00,38.3,30.1,28.73,WSW,248,5.8,7.6,72,0.00,,---,0.00,VWS V14.01,2013-11-06 17:27:00,
2013-11-06 11:32:00,38.5,29.9,28.73,West,265,4.0,7.6,71,0.00,,---,0.00,VWS V14.01,2013-11-06 17:32:00,
2013-11-06 11:37:00,38.5,29.6,28.73,West,265,2.2,7.6,70,0.00,,---,0.00,VWS V14.01,2013-11-06 17:37:00,
2013-11-06 11:42:00,38.7,29.7,28.73,NNW,328,0.0,7.6,70,0.00,,---,0.00,VWS V14.01,2013-11-06 17:42:00,
2013-11-06 11:48:00,38.7,29.7,28.73,NNW,328,0.0,7.6,70,0.00,,---,0.00,VWS V14.01,2013-11-06 17:48:00,
2013-11-06 11:53:00,38.8,29.9,28.73,WNW,288,0.0,7.6,70,0.00,,---,0.00,VWS V14.01,2013-11-06 17:53:00,
2013-11-06 11:58:00,38.8,29.5,28.73,NW,314,0.0,7.6,69,0.00,,---,0.00,VWS V14.01,2013-11-06 17:58:00,
2013-11-06 12:03:00,39.0,30.1,28.73,West,267,3.1,3.1,70,0.00,,---,0.00,VWS V14.01,2013-11-06 18:03:00,
2013-11-06 12:08:00,39.2,29.9,28.73,West,275,0.0,8.1,69,0.00,,---,0.00,VWS V14.01,2013-11-06 18:08:00,
2013-11-06 12:13:00,39.4,30.4,28.73,West,273,4.0,8.7,70,0.00,,---,0.00,VWS V14.01,2013-11-06 18:13:00,
2013-11-06 12:18:00,39.4,29.0,28.73,WSW,253,4.9,8.7,66,0.00,,---,0.00,VWS V14.01,2013-11-06 18:18:00,
2013-11-06 12:23:00,39.6,29.1,28.73,WSW,245,0.0,8.7,66,0.00,,---,0.00,VWS V14.01,2013-11-06 18:23:00,
2013-11-06 12:29:00,39.7,29.7,28.73,WSW,250,2.2,8.7,67,0.00,,---,0.00,VWS V14.01,2013-11-06 18:29:00,
2013-11-06 12:34:00,40.1,30.0,28.73,WSW,242,0.0,8.7,67,0.00,,---,0.00,VWS V14.01,2013-11-06 18:34:00,
2013-11-06 12:39:00,40.3,30.2,28.73,NNW,336,0.0,8.7,67,0.00,,---,0.00,VWS V14.01,2013-11-06 18:39:00,
2013-11-06 12:44:00,40.5,30.0,28.73,WSW,252,2.7,8.7,66,0.00,,---,0.00,VWS V14.01,2013-11-06 18:44:00,
2013-11-06 12:49:00,40.6,30.2,28.73,West,264,5.8,8.7,66,0.00,,---,0.00,VWS V14.01,2013-11-06 18:49:00,
2013-11-06 12:54:00,40.6,29.8,28.73,West,273,8.1,8.7,65,0.00,,---,0.00,VWS V14.01,2013-11-06 18:54:00,
2013-11-06 12:59:00,40.8,30.4,28.73,SSW,211,3.6,8.7,66,0.00,,---,0.00,VWS V14.01,2013-11-06 18:59:00,
2013-11-06 13:04:00,41.0,30.1,28.73,West,263,4.0,5.8,65,0.00,,---,0.00,VWS V14.01,2013-11-06 19:04:00,
2013-11-06 13:09:00,40.8,30.0,28.73,WSW,249,5.8,8.1,65,0.00,,---,0.00,VWS V14.01,2013-11-06 19:09:00,
2013-11-06 13:15:00,40.6,29.4,28.73,SSW,211,6.3,10.5,64,0.00,,---,0.00,VWS V14.01,2013-11-06 19:15:00,
2013-11-06 13:20:00,40.5,29.3,28.73,West,266,4.0,10.5,64,0.00,,---,0.00,VWS V14.01,2013-11-06 19:20:00,
2013-11-06 13:25:00,40.5,29.6,28.73,SW,226,3.1,10.5,65,0.00,,---,0.00,VWS V14.01,2013-11-06 19:25:00,
2013-11-06 13:30:00,40.6,30.2,28.73,SW,230,4.0,10.5,66,0.00,,---,0.00,VWS V14.01,2013-11-06 19:30:00,
2013-11-06 13:35:00,41.0,29.0,28.73,SW,218,2.7,10.5,62,0.00,,---,0.00,VWS V14.01,2013-11-06 19:35:00,
2013-11-06 13:40:00,41.5,30.3,28.73,WSW,257,0.0,10.5,64,0.00,,---,0.00,VWS V14.01,2013-11-06 19:40:00,
2013-11-06 13:45:00,42.6,30.5,28.73,SW,230,3.1,10.5,62,0.00,,---,0.00,VWS V14.01,2013-11-06 19:45:00,
2013-11-06 13:50:00,43.5,29.3,28.73,WSW,241,4.9,10.5,57,0.00,,---,0.00,VWS V14.01,2013-11-06 19:50:00,
2013-11-06 13:55:00,44.1,29.8,28.73,West,259,0.0,10.5,57,0.00,,---,0.00,VWS V14.01,2013-11-06 19:55:00,
2013-11-06 14:00:00,44.1,29.4,28.73,SSW,209,4.9,4.9,56,0.00,,---,0.00,VWS V14.01,2013-11-06 20:00:00,
2013-11-06 14:06:00,44.6,29.0,28.73,SSE,156,4.0,5.8,54,0.00,,---,0.00,VWS V14.01,2013-11-06 20:06:00,
2013-11-06 14:11:00,44.6,27.6,28.73,WSW,250,3.1,7.6,51,0.00,,---,0.00,VWS V14.01,2013-11-06 20:11:00,
2013-11-06 14:16:00,44.4,28.4,28.73,SW,224,2.7,7.6,53,0.00,,---,0.00,VWS V14.01,2013-11-06 20:16:00,
2013-11-06 14:21:00,44.6,28.1,28.73,WSW,239,0.0,7.6,52,0.00,,---,0.00,VWS V14.01,2013-11-06 20:21:00,
2013-11-06 14:26:00,44.4,28.4,28.73,West,275,3.6,7.6,53,0.00,,---,0.00,VWS V14.01,2013-11-06 20:26:00,
2013-11-06 14:31:00,44.6,28.1,28.73,WSW,251,4.0,7.6,52,0.00,,---,0.00,VWS V14.01,2013-11-06 20:31:00,
2013-11-06 14:36:00,44.8,28.7,28.73,SW,234,5.8,7.6,53,0.00,,---,0.00,VWS V14.01,2013-11-06 20:36:00,
2013-11-06 14:41:00,45.3,28.8,28.70,WSW,239,3.1,7.6,52,0.00,,---,0.00,VWS V14.01,2013-11-06 20:41:00,
2013-11-06 14:46:00,45.5,28.4,28.70,WNW,302,0.0,7.6,51,0.00,,---,0.00,VWS V14.01,2013-11-06 20:46:00,
2013-11-06 14:51:00,45.5,28.4,28.70,WSW,254,2.7,7.6,51,0.00,,---,0.00,VWS V14.01,2013-11-06 20:51:00,
2013-11-06 14:56:00,45.9,29.2,28.70,WSW,248,2.2,7.6,52,0.00,,---,0.00,VWS V14.01,2013-11-06 20:56:00,
2013-11-06 15:02:00,46.0,29.4,28.70,WNW,295,0.0,0.0,52,0.00,,---,0.00,VWS V14.01,2013-11-06 21:02:00,
2013-11-06 15:07:00,46.0,28.9,28.70,WNW,295,0.0,0.0,51,0.00,,---,0.00,VWS V14.01,2013-11-06 21:07:00,
2013-11-06 15:12:00,46.0,28.9,28.70,North,3,0.0,4.0,51,0.00,,---,0.00,VWS V14.01,2013-11-06 21:12:00,
2013-11-06 15:17:00,46.0,28.9,28.70,North,357,0.0,4.0,51,0.00,,---,0.00,VWS V14.01,2013-11-06 21:17:00,
2013-11-06 15:22:00,46.6,29.4,28.70,West,268,0.0,4.0,51,0.00,,---,0.00,VWS V14.01,2013-11-06 21:22:00,
2013-11-06 15:27:00,47.1,29.9,28.70,SSE,155,3.1,4.9,51,0.00,,---,0.00,VWS V14.01,2013-11-06 21:27:00,
2013-11-06 15:32:00,47.7,30.4,28.70,SSE,159,2.7,4.9,51,0.00,,---,0.00,VWS V14.01,2013-11-06 21:32:00,
2013-11-06 15:37:00,48.0,30.8,28.70,SSE,166,0.0,4.9,51,0.00,,---,0.00,VWS V14.01,2013-11-06 21:37:00,
2013-11-06 15:42:00,48.2,30.5,28.70,SSE,166,0.0,4.9,50,0.00,,---,0.00,VWS V14.01,2013-11-06 21:42:00,
2013-11-06 15:47:00,48.2,30.5,28.70,SSE,166,0.0,4.9,50,0.00,,---,0.00,VWS V14.01,2013-11-06 21:47:00,
2013-11-06 15:53:00,48.4,30.1,28.70,SSE,166,0.0,4.9,49,0.00,,---,0.00,VWS V14.01,2013-11-06 21:53:00,
2013-11-06 15:58:00,47.8,29.6,28.70,SSE,166,0.0,4.9,49,0.00,,---,0.00,VWS V14.01,2013-11-06 21:58:00,
2013-11-06 16:03:00,47.5,29.3,28.70,SSE,166,0.0,0.0,49,0.00,,---,0.00,VWS V14.01,2013-11-06 22:03:00,
2013-11-06 16:08:00,46.9,28.8,28.70,SSE,166,2.7,3.6,49,0.00,,---,0.00,VWS V14.01,2013-11-06 22:08:00,
2013-11-06 16:13:00,46.6,29.0,28.70,SSE,165,0.0,4.0,50,0.00,,---,0.00,VWS V14.01,2013-11-06 22:13:00,
2013-11-06 16:18:00,46.0,28.9,28.70,SSE,165,0.0,4.0,51,0.00,,---,0.00,VWS V14.01,2013-11-06 22:18:00,
2013-11-06 16:23:00,45.7,28.6,28.70,SSE,165,0.0,4.0,51,0.00,,---,0.00,VWS V14.01,2013-11-06 22:23:00,
2013-11-06 16:28:00,45.3,28.8,28.70,SSE,165,0.0,4.0,52,0.00,,---,0.00,VWS V14.01,2013-11-06 22:28:00,
2013-11-06 16:33:00,45.1,28.6,28.70,SSE,165,0.0,4.0,52,0.00,,---,0.00,VWS V14.01,2013-11-06 22:33:00,
2013-11-06 16:38:00,44.8,28.2,28.70,SSE,165,0.0,4.0,52,0.00,,---,0.00,VWS V14.01,2013-11-06 22:38:00,
2013-11-06 16:44:00,44.6,28.5,28.70,SSE,165,0.0,4.0,53,0.00,,---,0.00,VWS V14.01,2013-11-06 22:44:00,
2013-11-06 16:49:00,44.6,29.0,28.70,SSE,165,0.0,4.0,54,0.00,,---,0.00,VWS V14.01,2013-11-06 22:49:00,
2013-11-06 16:54:00,44.2,28.7,28.70,SSE,165,0.0,4.0,54,0.00,,---,0.00,VWS V14.01,2013-11-06 22:54:00,
2013-11-06 16:59:00,44.1,28.9,28.70,SSE,165,0.0,4.0,55,0.00,,---,0.00,VWS V14.01,2013-11-06 22:59:00,
2013-11-06 17:04:00,43.9,28.8,28.70,SSE,165,0.0,0.0,55,0.00,,---,0.00,VWS V14.01,2013-11-06 23:04:00,
2013-11-06 17:09:00,43.7,28.6,28.70,SSE,165,0.0,0.0,55,0.00,,---,0.00,VWS V14.01,2013-11-06 23:09:00,
2013-11-06 17:14:00,43.5,28.4,28.70,SSE,165,0.0,0.0,55,0.00,,---,0.00,VWS V14.01,2013-11-06 23:14:00,
2013-11-06 17:19:00,43.2,28.5,28.70,SSE,165,0.0,0.0,56,0.00,,---,0.00,VWS V14.01,2013-11-06 23:19:00,
2013-11-06 17:24:00,42.8,28.2,28.70,SSE,165,0.0,0.0,56,0.00,,---,0.00,VWS V14.01,2013-11-06 23:24:00,
2013-11-06 17:30:00,42.6,28.5,28.70,SSE,165,0.0,0.0,57,0.00,,---,0.00,VWS V14.01,2013-11-06 23:30:00,
2013-11-06 17:35:00,42.3,28.1,28.70,SSE,165,0.0,0.0,57,0.00,,---,0.00,VWS V14.01,2013-11-06 23:35:00,
2013-11-06 17:40:00,41.9,28.2,28.70,SSE,165,0.0,0.0,58,0.00,,---,0.00,VWS V14.01,2013-11-06 23:40:00,
2013-11-06 17:45:00,41.5,27.9,28.70,SSE,165,0.0,0.0,58,0.00,,---,0.00,VWS V14.01,2013-11-06 23:45:00,
2013-11-06 17:50:00,41.2,28.0,28.70,SSE,165,0.0,0.0,59,0.00,,---,0.00,VWS V14.01,2013-11-06 23:50:00,
2013-11-06 17:55:00,40.8,28.0,28.70,SSE,165,0.0,3.6,60,0.00,,---,0.00,VWS V14.01,2013-11-06 23:55:00,
2013-11-06 18:00:00,40.6,28.3,28.70,SSE,167,0.0,0.0,61,0.00,,---,0.00,VWS V14.01,2013-11-07 00:00:00,
2013-11-06 18:05:00,40.5,28.5,28.70,SSE,167,0.0,0.0,62,0.00,,---,0.00,VWS V14.01,2013-11-07 00:05:00,
2013-11-06 18:10:00,40.5,28.5,28.70,SSE,167,0.0,3.1,62,0.00,,---,0.00,VWS V14.01,2013-11-07 00:10:00,
2013-11-06 18:15:00,40.3,28.7,28.70,SSE,167,0.0,3.1,63,0.00,,---,0.00,VWS V14.01,2013-11-07 00:15:00,
2013-11-06 18:21:00,40.1,28.5,28.70,SSE,167,0.0,3.1,63,0.00,,---,0.00,VWS V14.01,2013-11-07 00:21:00,
2013-11-06 18:26:00,39.9,28.8,28.70,SSE,167,2.2,3.1,64,0.00,,---,0.00,VWS V14.01,2013-11-07 00:26:00,
2013-11-06 18:31:00,39.7,28.6,28.70,SSE,167,0.0,3.1,64,0.00,,---,0.00,VWS V14.01,2013-11-07 00:31:00,
2013-11-06 18:36:00,39.6,28.8,28.70,SSE,167,0.0,3.1,65,0.00,,---,0.00,VWS V14.01,2013-11-07 00:36:00,
2013-11-06 18:41:00,39.4,28.6,28.70,SSE,167,0.0,3.1,65,0.00,,---,0.00,VWS V14.01,2013-11-07 00:41:00,
2013-11-06 18:46:00,39.2,28.4,28.70,SSE,167,0.0,3.1,65,0.00,,---,0.00,VWS V14.01,2013-11-07 00:46:00,
2013-11-06 18:51:00,39.0,28.6,28.70,SSE,167,0.0,3.1,66,0.00,,---,0.00,VWS V14.01,2013-11-07 00:51:00,
2013-11-06 18:56:00,38.7,28.3,28.70,SSE,167,0.0,3.1,66,0.00,,---,0.00,VWS V14.01,2013-11-07 00:56:00,
2013-11-06 19:01:00,38.5,28.5,28.70,SSE,167,0.0,0.0,67,0.00,,---,0.00,VWS V14.01,2013-11-07 01:01:00,
2013-11-06 19:06:00,38.3,28.3,28.70,SSE,167,0.0,0.0,67,0.00,,---,0.00,VWS V14.01,2013-11-07 01:06:00,
2013-11-06 19:12:00,38.1,28.1,28.70,SSE,167,0.0,0.0,67,0.00,,---,0.00,VWS V14.01,2013-11-07 01:12:00,
2013-11-06 19:17:00,38.1,28.5,28.70,SSE,167,0.0,0.0,68,0.00,,---,0.00,VWS V14.01,2013-11-07 01:17:00,
2013-11-06 19:22:00,37.9,28.3,28.70,SSE,167,0.0,0.0,68,0.00,,---,0.00,VWS V14.01,2013-11-07 01:22:00,
2013-11-06 19:27:00,37.9,28.3,28.70,SSE,167,0.0,0.0,68,0.00,,---,0.00,VWS V14.01,2013-11-07 01:27:00,
2013-11-06 19:32:00,37.9,28.7,28.70,SSE,167,0.0,0.0,69,0.00,,---,0.00,VWS V14.01,2013-11-07 01:32:00,
2013-11-06 19:37:00,37.8,28.5,28.70,SSE,167,0.0,0.0,69,0.00,,---,0.00,VWS V14.01,2013-11-07 01:37:00,
2013-11-06 19:42:00,37.6,28.4,28.70,SSE,167,0.0,0.0,69,0.00,,---,0.00,VWS V14.01,2013-11-07 01:42:00,
2013-11-06 19:47:00,37.6,28.4,28.70,SSE,167,0.0,0.0,69,0.00,,---,0.00,VWS V14.01,2013-11-07 01:47:00,
2013-11-06 19:52:00,37.4,28.2,28.70,SSE,167,0.0,0.0,69,0.00,,---,0.00,VWS V14.01,2013-11-07 01:52:00,
2013-11-06 19:57:00,37.2,28.4,28.70,SSE,167,0.0,0.0,70,0.00,,---,0.00,VWS V14.01,2013-11-07 01:57:00,
2013-11-06 20:03:00,37.0,28.2,28.70,SSE,167,0.0,0.0,70,0.00,,---,0.00,VWS V14.01,2013-11-07 02:03:00,
2013-11-06 20:08:00,37.0,28.5,28.70,SSE,167,0.0,0.0,71,0.00,,---,0.00,VWS V14.01,2013-11-07 02:08:00,
2013-11-06 20:13:00,37.0,28.5,28.73,SSE,167,0.0,0.0,71,0.00,,---,0.00,VWS V14.01,2013-11-07 02:13:00,
2013-11-06 20:18:00,36.9,28.4,28.73,SSE,167,0.0,0.0,71,0.00,,---,0.00,VWS V14.01,2013-11-07 02:18:00,
2013-11-06 20:23:00,36.7,28.2,28.73,SSE,167,0.0,0.0,71,0.00,,---,0.00,VWS V14.01,2013-11-07 02:23:00,
2013-11-06 20:28:00,36.5,28.4,28.73,SSE,167,0.0,0.0,72,0.00,,---,0.00,VWS V14.01,2013-11-07 02:28:00,
2013-11-06 20:33:00,36.5,28.4,28.73,SSE,167,0.0,0.0,72,0.00,,---,0.00,VWS V14.01,2013-11-07 02:33:00,
2013-11-06 20:38:00,36.3,28.2,28.73,SSE,167,0.0,0.0,72,0.00,,---,0.00,VWS V14.01,2013-11-07 02:38:00,
2013-11-06 20:43:00,36.1,28.0,28.73,SSE,167,0.0,0.0,72,0.00,,---,0.00,VWS V14.01,2013-11-07 02:43:00,
2013-11-06 20:48:00,36.0,27.8,28.73,SSE,167,0.0,0.0,72,0.00,,---,0.00,VWS V14.01,2013-11-07 02:48:00,
2013-11-06 20:54:00,36.0,28.2,28.73,SSE,167,0.0,0.0,73,0.00,,---,0.00,VWS V14.01,2013-11-07 02:54:00,
2013-11-06 20:59:00,35.8,28.0,28.73,SSE,167,0.0,0.0,73,0.00,,---,0.00,VWS V14.01,2013-11-07 02:59:00,
2013-11-06 21:04:00,35.6,27.8,28.73,SSE,167,0.0,0.0,73,0.00,,---,0.00,VWS V14.01,2013-11-07 03:04:00,
2013-11-06 21:09:00,35.4,27.6,28.73,SSE,167,0.0,0.0,73,0.00,,---,0.00,VWS V14.01,2013-11-07 03:09:00,
2013-11-06 21:14:00,35.2,27.8,28.73,SSE,167,0.0,0.0,74,0.00,,---,0.00,VWS V14.01,2013-11-07 03:14:00,
2013-11-06 21:19:00,35.1,27.6,28.73,SSE,167,0.0,0.0,74,0.00,,---,0.00,VWS V14.01,2013-11-07 03:19:00,
2013-11-06 21:24:00,34.9,27.5,28.73,SSE,167,0.0,0.0,74,0.00,,---,0.00,VWS V14.01,2013-11-07 03:24:00,
2013-11-06 21:29:00,34.7,27.3,28.73,SSE,167,0.0,0.0,74,0.00,,---,0.00,VWS V14.01,2013-11-07 03:29:00,
2013-11-06 21:34:00,34.5,27.1,28.73,SSE,167,0.0,0.0,74,0.00,,---,0.00,VWS V14.01,2013-11-07 03:34:00,
2013-11-06 21:39:00,34.3,26.9,28.76,SSE,167,0.0,0.0,74,0.00,,---,0.00,VWS V14.01,2013-11-07 03:39:00,
2013-11-06 21:45:00,34.0,26.6,28.76,SSE,167,0.0,0.0,74,0.00,,---,0.00,VWS V14.01,2013-11-07 03:45:00,
2013-11-06 21:50:00,33.8,26.4,28.76,SSE,167,0.0,0.0,74,0.00,,---,0.00,VWS V14.01,2013-11-07 03:50:00,
2013-11-06 21:55:00,33.8,26.7,28.76,SSE,167,0.0,0.0,75,0.00,,---,0.00,VWS V14.01,2013-11-07 03:55:00,
2013-11-06 22:00:00,33.6,26.6,28.76,SSE,167,0.0,0.0,75,0.00,,---,0.00,VWS V14.01,2013-11-07 04:00:00,
2013-11-06 22:05:00,33.8,26.7,28.76,SSE,167,0.0,0.0,75,0.00,,---,0.00,VWS V14.01,2013-11-07 04:05:00,
2013-11-06 22:10:00,33.8,26.7,28.76,SSE,167,0.0,0.0,75,0.00,,---,0.00,VWS V14.01,2013-11-07 04:10:00,
2013-11-06 22:15:00,33.6,26.9,28.76,SSE,167,0.0,0.0,76,0.00,,---,0.00,VWS V14.01,2013-11-07 04:15:00,
2013-11-06 22:20:00,33.6,26.9,28.76,SSE,167,0.0,0.0,76,0.00,,---,0.00,VWS V14.01,2013-11-07 04:20:00,
2013-11-06 22:25:00,33.4,26.7,28.76,SSE,167,0.0,0.0,76,0.00,,---,0.00,VWS V14.01,2013-11-07 04:25:00,
2013-11-06 22:30:00,33.3,26.5,28.76,SSE,167,0.0,0.0,76,0.00,,---,0.00,VWS V14.01,2013-11-07 04:30:00,
2013-11-06 22:36:00,33.1,26.7,28.76,SSE,167,0.0,0.0,77,0.00,,---,0.00,VWS V14.01,2013-11-07 04:36:00,
2013-11-06 22:41:00,33.1,26.7,28.76,SSE,167,0.0,0.0,77,0.00,,---,0.00,VWS V14.01,2013-11-07 04:41:00,
2013-11-06 22:46:00,33.1,26.7,28.76,SSE,167,0.0,0.0,77,0.00,,---,0.00,VWS V14.01,2013-11-07 04:46:00,
2013-11-06 22:51:00,33.3,26.8,28.76,SSE,167,0.0,0.0,77,0.00,,---,0.00,VWS V14.01,2013-11-07 04:51:00,
2013-11-06 22:56:00,33.3,27.1,28.76,SSE,167,0.0,0.0,78,0.00,,---,0.00,VWS V14.01,2013-11-07 04:56:00,
2013-11-06 23:01:00,33.3,27.1,28.76,SSE,167,0.0,0.0,78,0.00,,---,0.00,VWS V14.01,2013-11-07 05:01:00,
2013-11-06 23:02:00,33.3,27.1,28.76,SSE,167,0.0,0.0,78,0.00,,---,0.00,VWS V14.01,2013-11-07 05:02:00,
2013-11-06 23:03:00,33.3,27.1,28.76,SSE,167,0.0,0.0,78,0.00,,---,0.00,VWS V14.01,2013-11-07 05:03:00,
2013-11-06 23:05:00,33.3,27.1,28.76,SSE,167,0.0,0.0,78,0.00,,---,0.00,VWS V14.01,2013-11-07 05:05:00,
2013-11-06 23:08:00,33.3,27.1,28.76,SSE,167,0.0,0.0,78,0.00,,---,0.00,VWS V14.01,2013-11-07 05:08:00,
2013-11-06 23:13:00,33.1,27.0,28.76,SSE,167,0.0,0.0,78,0.00,,---,0.00,VWS V14.01,2013-11-07 05:13:00,
2013-11-06 23:18:00,33.1,27.0,28.76,SSE,167,0.0,0.0,78,0.00,,---,0.00,VWS V14.01,2013-11-07 05:18:00,
2013-11-06 23:23:00,33.1,27.0,28.76,SSE,167,0.0,0.0,78,0.00,,---,0.00,VWS V14.01,2013-11-07 05:23:00,
2013-11-06 23:28:00,33.1,27.0,28.76,SSE,167,0.0,0.0,78,0.00,,---,0.00,VWS V14.01,2013-11-07 05:28:00,
2013-11-06 23:33:00,33.1,27.3,28.76,SSE,167,0.0,0.0,79,0.00,,---,0.00,VWS V14.01,2013-11-07 05:33:00,
2013-11-06 23:38:00,33.1,27.3,28.76,SSE,167,0.0,0.0,79,0.00,,---,0.00,VWS V14.01,2013-11-07 05:38:00,
2013-11-06 23:44:00,33.1,27.3,28.76,SSE,167,0.0,0.0,79,0.00,,---,0.00,VWS V14.01,2013-11-07 05:44:00,
2013-11-06 23:49:00,33.1,27.3,28.76,SSE,167,0.0,0.0,79,0.00,,---,0.00,VWS V14.01,2013-11-07 05:49:00,
2013-11-06 23:54:00,33.1,27.3,28.76,SSE,167,0.0,0.0,79,0.00,,---,0.00,VWS V14.01,2013-11-07 05:54:00,
2013-11-06 23:59:00,33.3,27.8,28.76,SSE,167,0.0,0.0,80,0.00,,---,0.00,VWS V14.01,2013-11-07 05:59:00,